Regional Weather Roundup
Issued by NWS

Home | Current Version | Previous Version | Graphics & Text | Print | Product List | Glossary On
Versions: 1 2 3 4 5 6 7 8 9 10 11 12 13 14 15 16 17 18 19 20 21 22 23 24 25 26 27 28 29 30 31 32 33 34 35 36 37 38 39 40 41 42 43 44 45 46 47 48 49 50
000
ASUS43 KMPX 161201
RWRMN
WEATHER ROUNDUP FOR MINNESOTA
NATIONAL WEATHER SERVICE TWIN CITIES/CHANHASSEN MN
700 AM CDT WED APR 16 2014


NOTE: "FAIR" INDICATES FEW OR NO CLOUDS BELOW 12,000 FEET WITH NO
SIGNIFICANT WEATHER AND/OR OBSTRUCTIONS TO VISIBILITY. N/A MEANS
CURRENT SKY AND/OR WEATHER CONDITIONS ARE NOT AVAILABLE.

MNZ060>063-068>070-161300-
   Twin Cities Metro

CITY           SKY/WX    TMP DP  RH WIND       PRES   REMARKS
TWIN CITIES    CLOUDY    33  16  49 E23G30    29.96S WCI  21
6HR MIN TEMP:  33; 6HR MAX TEMP:  34;

ST PAUL        CLOUDY    33  18  53 E13       30.00S WCI  24
CRYSTAL        CLOUDY    32  20  61 E13G22    29.96F WCI  22
BLAINE         CLOUDY    32  25  74 E14G23    29.97S WCI  22
EDEN PRAIRIE   CLOUDY    35  17  47 E17G28    29.93F WCI  25
6HR MIN TEMP:  35; 6HR MAX TEMP:  35;

LAKEVILLE      CLOUDY    32  19  59 E16       29.94F WCI  21
SOUTH ST PAUL  CLOUDY    37  18  46 E9G18     29.98S
LAKE ELMO      CLOUDY    32  21  64 E20G25    30.00F WCI  20
$$
MNZ001>005-007-008-013>017-022>024-027-028-161300-
   Northwest Minnesota

CITY           SKY/WX    TMP DP  RH WIND       PRES   REMARKS
BEMIDJI        CLOUDY    25   6  43 E10       30.05R WCI  15
HALLOCK        CLOUDY    25  10  54 E13       30.12R WCI  13
ROSEAU         MOCLDY    21  10  63 E10       30.14R WCI  10
WARROAD        MOCLDY    18   9  68 NE8       30.16R WCI   7
THIEF RVR FALL CLOUDY    25   7  46 E12       30.07R WCI  14
CROOKSTON      CLOUDY    28  12  50 E12G18    30.07R WCI  18
FOSSTON        CLOUDY    27   7  43 E10G16    30.04R WCI  17
DETROIT LAKES  MIX PCPN  27  23  86 E8G17     29.98R WCI  18
MOORHEAD       CLOUDY    28  27  93 E14       29.98R WCI  17
PARK RAPIDS    LGT SNOW  25  19  78 E17G23    30.01R WCI  12
$$
MNZ006-009>011-018-025>026-161300-
   North Central Minnesota

CITY           SKY/WX    TMP DP  RH WIND       PRES   REMARKS
BAUDETTE       MOCLDY    19   6  57 E8        30.15R WCI   9
FLAG ISLAND    PTCLDY    18   1  49 E6        30.16R WCI   9
INTL FALLS     PTCLDY    18   3  52 E7        30.15R WCI   9
6HR MIN TEMP:  14; 6HR MAX TEMP:  19;

WASKISH        CLOUDY    19   7  58 NE8       30.11R WCI   9
BIG FORK       CLOUDY    21   5  49 E6        30.11R WCI  14
LONGVILLE      CLOUDY    27   7  43 E5        30.05R WCI  21
GRAND RAPIDS   CLOUDY    25   5  42 E6        30.07R WCI  18
CRANE LAKE     PTCLDY     5   1  85 CALM      30.19R
ORR            PTCLDY    18   0  45 CALM      30.11R
COOK           MOCLDY    18   7  62 CALM      30.13R
$$
MNZ012-019>021-037-161300-
   Northeast Minnesota

CITY           SKY/WX    TMP DP  RH WIND       PRES   REMARKS
DULUTH         CLOUDY    25  11  55 E10       30.09S WCI  15
6HR MIN TEMP:  21; 6HR MAX TEMP:  25;

ELY            MOCLDY    10   7  85 CALM      30.15R
HIBBING        CLOUDY    23   8  52 E8        30.10R WCI  14
EVELETH        CLOUDY    21   7  53 NE6       30.12R WCI  14
DULUTH HARBOR  CLOUDY    28  19  69 NE8       30.15R WCI  20
TWO HARBORS    CLOUDY    25  12  58 NE7       30.12S WCI  17
SILVER BAY     CLOUDY    21  16  79 CALM      30.14S
GRAND MARAIS     N/A     24   5  44 NE6       30.23R WCI  17
G MARAIS ARPRT MOCLDY    10  -6  48 NE5       30.15R WCI   2
$$
MNZ029>031-032-039>041-046>048-054>057-064-161300-
   West Central Minnesota

CITY           SKY/WX    TMP DP  RH WIND       PRES   REMARKS
FERGUS FALLS   DRIZZLE   27  21  80 E13G28    29.91R WCI  16
WHEATON        MIX PCPN  32  27  80 E20G29    29.89F WCI  20
MORRIS         CLOUDY    30  23  74 E30       29.84F WCI  15
ALEXANDRIA     CLOUDY    27  23  85 E24G35    29.90S WCI  12
ELBOW LAKE     CLOUDY    28  24  84 E20G30    29.89R WCI  15
WADENA         LGT SNOW  23  21  93 E10G17    29.97S WCI  12
GLENWOOD       CLOUDY    27  25  93 E22G30    29.89S WCI  12
APPLETON       CLOUDY    34  21  60 E20G28    29.82S WCI  22
BENSON         CLOUDY    30  23  74 E16G23    29.84F WCI  19
ORTONVILLE     CLOUDY    30  19  64 E22G28    29.82S WCI  17
MADISON        CLOUDY    36  21  55 E22G30    29.79F
WILLMAR        FAIR      32  21  64 E17G26    29.86F WCI  21
$$
MNZ033>034-036-042>043-049>051-058-059-161300-
   Central Minnesota

CITY           SKY/WX    TMP DP  RH WIND       PRES   REMARKS
ST CLOUD       CLOUDY    30  23  75 E16G24    29.96S WCI  19
6HR MIN TEMP:  29; 6HR MAX TEMP:  33; 6HR PCP:  0.01;

SAUK CENTRE    CLOUDY    27  24  87 E17       29.92R WCI  14
PAYNESVILLE    CLOUDY    29  22  75 E17G25    29.91R WCI  17
AITKIN         CLOUDY    30  18  59 E9        30.03R WCI  22
PINE RIVER     LGT SNOW  27  19  74 E15       30.06R WCI  15
BRAINERD       SNOW      29  22  75 E8        30.03R VSB 1/2 WCI  21
STAPLES        LGT SNOW  25  21  86 E8        29.99R WCI  16
LONG PRAIRIE   CLOUDY    25  23  93 NE16G24   29.94S WCI  12
LITTLE FALLS   LGT SNOW  28  23  80 E9G20     29.98S WCI  20
LITCHFIELD     CLOUDY    30  25  80 E14       29.90S WCI  20
BUFFALO        CLOUDY    31  22  68 E12G17    29.96R WCI  22
MAPLE LAKE     CLOUDY    31  26  81 E14G21    29.95R WCI  21
$$
MNZ037-044-045-052-053-161300-
   East Central Minnesota

CITY           SKY/WX    TMP DP  RH WIND       PRES   REMARKS
PRINCETON      CLOUDY    28  25  86 E15       29.99S WCI  17
MORA           LGT SNOW  27  23  86 E12G17    30.05S WCI  16
CAMBRIDGE      MIX PCPN  30  21  69 E9        29.99F WCI  22
RUSH CITY      LGT SNOW  27  25  92 E9        30.05S WCI  18
MOOSE LAKE     CLOUDY    28  12  50 NE3       30.06S
HINCKLEY       LGT SNOW  28  27  93 E8        30.07S WCI  20
CLOQUET        CLOUDY    25   9  50 E7        30.09R WCI  17
MCGREGOR       CLOUDY    28  14  54 E14       30.07R WCI  17
$$
MNZ071>073-080-081-089-090-097-098-161300-
   Southwest Minnesota

CITY           SKY/WX    TMP DP  RH WIND       PRES   REMARKS
MONTEVIDEO     CLOUDY    34  21  60 SE25G35   29.81F WCI  21
GRANITE FALLS  CLOUDY    33  21  60 E21G29    29.81S WCI  22
CANBY          CLOUDY    33  24  68 E14       29.78R WCI  23
MARSHALL       CLOUDY    34  21  60 E21G28    29.73S WCI  22
REDWOOD FALLS  CLOUDY    35  21  56 SE12G24   29.81S WCI  27
OLIVIA         CLOUDY    34  21  60 E18G25    29.82S WCI  23
PIPESTONE      CLOUDY    37  28  70 SE13      29.64S
WINDOM         CLOUDY    36  28  75 SE15G24   29.74F
WORTHINGTON    CLOUDY    37  27  65 SE14G21   29.70F
JACKSON        CLOUDY    36  28  75 SE15      29.75R
TRACY          CLOUDY    34  26  70 E13G18    29.73F WCI  25
SLAYTON        CLOUDY    36  29  75 SE15      29.70S
$$
MNZ065>067-074>077-082>085-091>093-161300-
   South Central Minnesota

CITY           SKY/WX    TMP DP  RH WIND       PRES   REMARKS
MANKATO        CLOUDY    36  21  55 SE20G26   29.87S
NEW ULM        CLOUDY    36  23  60 SE17      29.82F
ST JAMES       CLOUDY    37  27  65 SE16G22   29.82R
FAIRMONT       CLOUDY    36  25  64 SE20G26   29.80R
GLENCOE        CLOUDY    35  18  51 E18G24    29.89S WCI  24
FARIBAULT      CLOUDY    37  16  41 E15       29.92S
OWATONNA       CLOUDY    36  21  55 SE18G25   29.90S
WASECA         CLOUDY    36  25  64 SE21G29   29.89F
ALBERT LEA     CLOUDY    36  25  64 SE22G30   29.86S
$$
MNZ078>079-086>088-094>096-161300-
   Southeast Minnesota

CITY           SKY/WX    TMP DP  RH WIND       PRES   REMARKS
ROCHESTER      CLOUDY    33  19  56 SE22G32   29.93F WCI  21
6HR MIN TEMP:  31; 6HR MAX TEMP:  33;

RED WING       CLOUDY    36  16  44 SE21G28   29.98F
STANTON        CLOUDY    35  18  49 E13       29.95R WCI  27
DODGE CENTER   CLOUDY    36  21  55 SE23      29.91S
WINONA         CLOUDY    34  23  64 SE17G24   30.05F WCI  23
AUSTIN         CLOUDY    34  21  60 SE16G25   29.90S WCI  23
PRESTON        CLOUDY    33  20  59 SE15G28   29.98F WCI  23
$$
ABBREVIATIONS USED IN REMARKS
   TC - TEMPERATURES IN CELSIUS
  WCI - WIND CHILL INDEX
   HX - HEAT INDEX
  VSB - VISIBILITY
$$



USA.gov is the U.S. government's official web portal to all federal, state and local government web resources and services.